AirNav   Phillips 66 Aviation Fuel
 
 891 users online  

6M2 Horseshoe Bend Airport
Horseshoe Bend, Arkansas, USA

GOING TO HORSESHOE BEND?


FAA INFORMATION EFFECTIVE 13 SEPTEMBER 2018

Location

FAA Identifier: 6M2
Lat/Long: 36-13-16.9210N / 091-45-19.7230W
36-13.282017N / 091-45.328717W
36.2213669 / -91.7554786
(estimated)
Elevation: 781.1 ft. / 238 m (estimated)
Variation: 00E (2020)
From city: 1 mile NE of HORSESHOE BEND, AR
Time zone: UTC -5 (UTC -6 during Standard Time)
Zip code: 72512

Airport Operations

Airport use: Open to the public
Activation date: 08/1964
Control tower: no
ARTCC: MEMPHIS CENTER
FSS: JONESBORO FLIGHT SERVICE STATION
NOTAMs facility: JBR (NOTAM-D service available)
Attendance: UNATNDD
Wind indicator: lighted
Segmented circle: yes
Lights: DUSK-DAWN. ACTVT MIRL RY 13/31 - CTAF.
Beacon: white-green (lighted land airport)
Operates sunset to sunrise.

Airport Communications

CTAF/UNICOM: 122.8
  • APCH/DEP SVC PRVDD BY MEMPHIS ARTCC (ZME) ON 120.075/289.4 (WALNUT RIDGE RCAG).

Nearby radio navigation aids

VOR radial/distance  VOR name  Freq  Var
ARGr276/39.4WALNUT RIDGE VORTAC114.5004E

Airport Services

Fuel available: 100LL
SELF SERVE FUEL AVBL 24 HRS WITH CREDIT CARD.
Parking: hangars and tiedowns

Runway Information

Runway 13/31

Dimensions: 4524 x 60 ft. / 1379 x 18 m
Surface: asphalt, in good condition
Weight bearing capacity: 
Single wheel: 4.0
Runway edge lights: medium intensity
RUNWAY 13  RUNWAY 31
Latitude: 36-13.498167N36-13.065833N
Longitude: 091-45.703767W091-44.953833W
Elevation: 782.0 ft.777.5 ft.
Gradient: 0.5%0.5%
Traffic pattern: leftleft
Runway heading: 125305
Displaced threshold: 1018 ft.no
Markings: basic, in good conditionnonprecision, in good condition
Visual slope indicator: 2-light PAPI on left (3.00 degrees glide path)
Obstructions: 100 ft. trees, 1200 ft. from runway, 10:1 slope to clear
TERRAIN RISES 681 FT BTN 200-1100 FT FM END OF RY.
30 ft. tree, 400 ft. from runway, 225 ft. right of centerline, 6:1 slope to clear

Airport Ownership and Management from official FAA records

Ownership: Publicly-owned
Owner: CITY OF HORSEHOE BEND
CITY HALL - 704 W COMMERCE
HORSESHOE BEND, AR 72512
Phone 870-670-5113
Manager: MIKE SLAVIN
704 W COMMERCE
HORSESHOE BEND, AR 72512
Phone 901-489-0687

Airport Operational Statistics

Aircraft based on the field: 9
Single engine airplanes: 7
Multi engine airplanes: 1
Helicopters: 1
    
Aircraft operations: avg 123/week *
55% transient general aviation
39% local general aviation
6% military
* for 12-month period ending 30 June 2017

Additional Remarks

RAPIDLY RISING TERRAIN WITH TREES ON FINAL APCH RY 13.
RECOMMEND TKOF RY 13 DUE TO RAPIDLY RISING TERRAIN NW OF ARPT.
DEER ON & INVOF ARPT.
PAY PHONE AVBL

Instrument Procedures

NOTE: All procedures below are presented as PDF files. If you need a reader for these files, you should download the free Adobe Reader.

NOT FOR NAVIGATION. Please procure official charts for flight.
FAA instrument procedures published for use from 13 September 2018 at 0901Z to 11 October 2018 at 0900Z.

 
IAPs - Instrument Approach Procedures
RNAV (GPS)-A   download (149KB)
NOTE: Special Take-Off Minimums/Departure Procedures apply   download (210KB)

Other nearby airports with instrument procedures:

KCVK - Sharp County Regional Airport (10 nm E)
42A - Melbourne Municipal Airport - John E Miller Field (10 nm S)
7M2 - Mountain View Airport-Wilcox Memorial Field (27 nm SW)
KBVX - Batesville Regional Airport (30 nm S)
KBPK - Baxter County Airport (36 nm W)
 
Loc | Ops | Rwys | IFR | FBO | Links
Com | Nav | Svcs | Stats | Notes


 
Area around 6M2 (Horseshoe Bend Airport)
 
Road maps at: MapQuest Bing Google
 
Aerial photo
WARNING: Photo may not be current or correct
Aerial photo of 6M2 (Horseshoe Bend Airport)
Photo courtesy of the Arkansas Department of Aeronautics
Taken in the Spring of 2007

Do you have a better or more recent aerial photo of Horseshoe Bend Airport that you would like to share? If so, please send us your photo.

 
Sectional chart

 
Airport distance calculator
Flying to Horseshoe Bend Airport? Find the distance to fly.

From to 6M2

Sunrise and sunset
Times for 22-Sep-2018
 Local
(UTC-5)
 Zulu
(UTC)
Morning civil twilight06:3011:30
Sunrise06:5611:56
Sunset19:0400:04
Evening civil twilight19:2900:29

Current date and time
Zulu (UTC)  22-Sep-2018 18:03:10
Local (UTC-5)  22-Sep-2018 13:03:10
 
METAR
KBVX 
31nm S 
221756Z AUTO VRB05KT 10SM -RA OVC009 16/16 A3014 RMK AO2 CIG 004V010 SLP205 P0004 60028 T01610156 10161 20156 58004
KFLP 
35nm W 
221756Z AUTO 02005KT 10SM OVC010 17/16 A3018 RMK AO2 RAE15 SLP215 P0000 60032 T01670156 10167 20144 56008
KBPK 
35nm W 
221753Z AUTO VRB06KT 10SM OVC008 16/15 A3016 RMK AO2 RAE19 CIG 006V013 SLP209 P0000 60038 T01560150 10156 20139 58005 TSNO
KUNO 
40nm N 
221753Z AUTO 04009KT 10SM -RA BKN007 OVC011 16/14 A3019 RMK AO2 CIG 005V009 SLP218 P0004 60052 T01560144 10156 20144 58007
KARG 
41nm E 
221756Z AUTO 03010KT 4SM -RA BR OVC008 17/16 A3013 RMK AO2 CIG 006V013 SLP202 P0002 60027 T01670161 10167 20156 58008
KM19 
45nm SE 
221756Z AUTO 02010KT 10SM RA OVC007 17/16 A3011 RMK AO2 SLP201 P0005 60026 T01670161 10167 20156 58005
TAF
KBPK 
35nm W 
221723Z 2218/2318 VRB03KT P6SM -RA SCT006 OVC012 FM230300 07007KT 4SM BR VCSH OVC007
NOTAMs
Click for the latest NOTAMs
NOTAMs are issued by the DoD/FAA and will open in a separate window not controlled by AirNav.

 

 
 

FBO, Fuel Providers, and Aircraft Ground Support

  
 Business Name 
 
 Contact 
 
 Services / Description 
 
Fuel Prices
 
Comments
  
City of Horseshoe Bend 870-670-5113 Airport management, Aviation fuel, Public telephone, Restrooms

More info about City of Horseshoe Bend
Phillips 66
100LL
SS $4.19 
 Updated 13-Sep-2018
 
   2 read write
SS=Self service
Update Fuel Prices
 

Where to Stay: Hotels, Motels, Resorts, B&Bs, Campgrounds

 The hotels featured here are reported to be very convenient to the Horseshoe Bend Airport. If your hotel/inn/B&B/resort is near the Horseshoe Bend Airport, provides convenient transportation, or is otherwise attractive to pilots, flight crews, and airport users, consider listing it here.
  
 Business Name 
 
 Contact 
 
 Services / Description 
 
Distance
 
Comments
  
 Cedar Glade Resort
870-670-5141
[web site]
[email]

Like us on facebook
Internet access, Lodging
 
Wireless Internet Access (WiFi)  
 
More info about Cedar Glade Resort
0.5 miles  
   write
Feature A Hotel
 

Would you like to see your business listed on this page?

 If your business provides an interesting product or service to pilots, flight crews, aircraft, or users of the Horseshoe Bend Airport, you should consider listing it here.  To start the listing process, click on the button below
 
Add a business
 

Other Pages about Horseshoe Bend Airport

Update a link
 
Copyright © AirNav, LLC. All rights reserved. Privacy Policy  Contact